Regional Weather Roundup
Issued by NWS Newport/Morehead, NC

Current Version | Previous Version | Graphics & Text | Print | Product List | Glossary On
Versions: 1 2 3 4 5 6 7 8 9 10 11 12 13 14 15 16 17 18 19 20 21 22 23 24 25 26 27 28 29 30 31 32 33 34 35 36 37 38 39 40 41 42 43 44 45 46 47 48 49 50
000 ASUS42 KMHX 221325 RWRMHX WEATHER ROUNDUP FOR EASTERN NORTH CAROLINA NATIONAL WEATHER SERVICE NEWPORT/MOREHEAD CITY NC 800 AM EST WED NOV 22 2017 NOTE: "FAIR" INDICATES FEW OR NO CLOUDS BELOW 12,000 FEET WITH NO SIGNIFICANT WEATHER AND/OR OBSTRUCTIONS TO VISIBILITY NCZ015>017-031-032-045>047-102-103-221400- NORTH COAST CITY SKY/WX TMP DP RH WIND PRES REMARKS EDENTON CLOUDY 59 58 97 CALM 29.92S FOG ELIZABETH CITY CLOUDY 60 60 100 NW12 29.89F FOG KITTY HAWK CLOUDY N/A N/A N/A CALM 29.88R MANTEO CLOUDY 59 58 97 CALM 29.89R $$ NCZ045>047-081-094-103-104-221400- CENTRAL COAST CITY SKY/WX TMP DP RH WIND PRES REMARKS FRISCO SUNNY 60 60 100 CALM 29.89R $$ NCZ095-097-098-100-101-221400- SOUTHERN COAST CITY SKY/WX TMP DP RH WIND PRES REMARKS BEAUFORT FOG 58 58 100 CALM 29.91S VSB<1/4 CEDAR ISLAND NOT AVBL JACKSONVILLE CLOUDY 59 59 100 W5 29.93R PINEY ISLAND FOG N/A N/A N/A SW3 29.91S VSB 1/4 WILMINGTON PTSUNNY 60 60 100 W7 29.94R $$ NCZ011>013-027>030-043-044-078>080-089-090>093-098-221400- COASTAL PLAIN CITY SKY/WX TMP DP RH WIND PRES REMARKS AHOSKIE RAIN 52 52 100 CALM 29.94R CLINTON SUNNY 55 55 100 CALM 29.96R ELIZABETHTOWN NOT AVBL GOLDSBORO PTSUNNY 57 53 86 W3 29.92R GREENVILLE PTSUNNY 55 54 94 CALM 29.96R HAVELOCK NOT AVBL KENANSVILLE MOSUNNY 55 55 100 N5 29.94R KINSTON MOSUNNY 55 54 94 NW3 29.94R NEW BERN CLOUDY 57 57 100 NW6 29.94R FOG RICHLANDS CLOUDY 57 57 100 CALM 29.95R FOG ROCKY MOUNT CLOUDY 54 54 100 NW6 29.94R WASHINGTON CLOUDY 56 56 97 NW5 29.94R WHITEVILLE PTSUNNY 57 56 97 CALM 29.96R FOG $$ AMZ130-135-150-152-154-156-158-170-250-252-270-ANZ085-086-088-633-658-670-221400- MARINE OBSERVATIONS STATION/POSITION TIME TEMP WIND PRES WAVE SWELL AIR SEA DIR/SP/G HT/PER HT/PER (UTC) (F) (DEG/KT/KT) (MB) (FT/S) (FT/S) CHESAPEAKE LIGHT NOT AVBL 64 E VA BEACH 1250 61 62 40/ 6/ 8 1011.3 8/ 8 7/ 8 DUCK 1300 61 60 260/ 3/ 4 1011.7 2 E DUCK 1300 61 N/A 4/ 7 OREGON INLET 1300 60 55 360/ 4/ 5 1011.6 13E OREGON INLT 1248 65 N/A 7/ 7 7/ 7 HATTERAS CG 1300 58 59 20/ 2/ 3 1011.5 DIAMOND BUOY 1310 67 74 340/ 10/ 16 1011.8 CAPE LOOKOUT 1300 290/ 3/ 4 1013.2 BEAUFORT LAB 1300 58 60 360/ 2/ 4 1012.6 30 SE NEW RVR IN 1308 64 66 350/ 6/ 10 1013.7 30 SE NEW RVR IN 1230 67 N/A 5/ 7 27 SE WRIGHTSVLE 1308 65 68 300/ 8/ 12 1013.5 5 SE WRIGHTSVLE 1308 61 63 300/ 6/ 12 1013.5 225 S CAPE HAT 1250 76 76 240/ 19/ 23 1012.3 8/ 7 7/ 7 41 SE CHARLESTON 1310 65 74 320/ 14/ 17 1014.8 $$

USA.gov is the U.S. government's official web portal to all federal, state and local government web resources and services.